Holden Pond Weather Center

Moon Phase Calendar



Holden Pond Water Level
Online Cameras

 


      

Current Conditions in Hawthorne
5/26/2022 1:59:28 AM

75°F
Feels Like 76
Clouds
Humidity
90%
Pressure
30.09"
Wind
6 mph (SE)
Dew Point
72°F
UV Index
0/10 (Low)
Visibility
6 mi

Hourly Forecast

Date & Time Thu, May 26
1:00 AM
Thu, May 26
2:00 AM
Thu, May 26
3:00 AM
Thu, May 26
4:00 AM
Thu, May 26
5:00 AM
Thu, May 26
6:00 AM
Thu, May 26
7:00 AM
Thu, May 26
8:00 AM
Thu, May 26
9:00 AM
Thu, May 26
10:00 AM
Thu, May 26
11:00 AM
Thu, May 26
12:00 PM
Thu, May 26
1:00 PM
Thu, May 26
2:00 PM
Thu, May 26
3:00 PM
Thu, May 26
4:00 PM
Thu, May 26
5:00 PM
Thu, May 26
6:00 PM
Thu, May 26
7:00 PM
Thu, May 26
8:00 PM
Thu, May 26
9:00 PM
Thu, May 26
10:00 PM
Thu, May 26
11:00 PM
Fri, May 27
12:00 AM
Fri, May 27
1:00 AM
Fri, May 27
2:00 AM
Fri, May 27
3:00 AM
Fri, May 27
4:00 AM
Fri, May 27
5:00 AM
Fri, May 27
6:00 AM
Fri, May 27
7:00 AM
Fri, May 27
8:00 AM
Fri, May 27
9:00 AM
Fri, May 27
10:00 AM
Fri, May 27
11:00 AM
Fri, May 27
12:00 PM
Fri, May 27
1:00 PM
Fri, May 27
2:00 PM
Fri, May 27
3:00 PM
Fri, May 27
4:00 PM
Fri, May 27
5:00 PM
Fri, May 27
6:00 PM
Fri, May 27
7:00 PM
Fri, May 27
8:00 PM
Fri, May 27
9:00 PM
Fri, May 27
10:00 PM
Fri, May 27
11:00 PM
Sat, May 28
12:00 AM
Condition
Clouds

Clouds

Clouds

Clouds

Clouds

Clouds

Clouds

Clouds

Clouds

Clouds

Clouds

Clouds

Clouds

Clouds

Clouds

Clouds

Clouds

Clouds

Clouds

Clouds

Rain

Rain

Clouds

Clouds

Clouds

Clouds

Clouds

Clouds

Clouds

Clouds

Clouds

Clouds

Clouds

Clouds

Clouds

Clouds

Clouds

Clouds

Clouds

Clouds

Clouds

Clouds

Clouds

Clouds

Clear

Clear

Clear

Clear
Temperature 75°F75°F74°F74°F73°F72°F72°F74°F78°F82°F84°F85°F89°F92°F94°F94°F92°F88°F82°F79°F77°F76°F76°F75°F75°F74°F74°F73°F72°F72°F72°F76°F80°F84°F87°F90°F92°F90°F91°F91°F90°F89°F86°F82°F79°F77°F75°F73°F
Feels Like 76°F76°F76°F75°F74°F74°F73°F75°F79°F85°F86°F85°F89°F91°F92°F92°F91°F88°F84°F79°F77°F77°F77°F76°F76°F75°F75°F74°F73°F73°F73°F77°F83°F86°F89°F92°F93°F91°F91°F91°F90°F89°F88°F84°F79°F78°F76°F73°F
Cloudiness 78%77%79%83%86%88%91%92%99%100%99%99%99%99%96%98%99%99%99%99%100%100%100%100%100%100%100%95%92%87%87%89%51%62%57%65%67%71%72%72%64%53%42%35%0%0%0%0%
Visibility 6 mi6 mi6 mi6 mi6 mi6 mi6 mi6 mi6 mi6 mi6 mi6 mi6 mi6 mi6 mi6 mi6 mi6 mi6 mi6 mi6 mi6 mi6 mi6 mi6 mi6 mi6 mi6 mi6 mi6 mi6 mi6 mi6 mi6 mi6 mi6 mi6 mi6 mi6 mi6 mi6 mi6 mi6 mi6 mi6 mi6 mi6 mi6 mi
Precipitation 26%22%1%1%1%1%1%0%0%0%1%0%0%0%0%0%0%4%0%0%35%36%43%43%42%42%1%1%2%2%0%0%5%11%36%33%36%36%2%2%2%5%4%4%0%8%19%33%
Humidity 89%90%91%91%92%94%93%85%73%60%53%48%38%32%29%28%31%40%57%66%70%73%75%78%81%83%85%87%89%91%89%79%67%56%49%42%37%39%36%36%38%41%48%56%62%68%76%84%
Dew Point 71°F72°F72°F71°F71°F70°F70°F70°F69°F67°F65°F63°F60°F58°F57°F56°F57°F60°F65°F67°F66°F67°F67°F68°F68°F69°F69°F69°F69°F69°F69°F69°F68°F67°F66°F64°F62°F62°F61°F61°F61°F62°F64°F65°F65°F66°F67°F68°F
Pressure 30.09"30.09"30.09"30.09"30.06"30.06"30.09"30.09"30.09"30.09"30.09"30.09"30.06"30.03"30"30"30"30"30"30"30"30"30"30"30"30"29.97"29.97"29.97"29.97"30"30"30"30"29.97"29.97"29.94"29.94"29.91"29.88"29.88"29.88"29.88"29.91"29.91"29.91"29.94"29.94"
Wind Speed 7.1 mph6.2 mph5.5 mph5.1 mph5 mph5.6 mph5.8 mph7.3 mph9.5 mph9.4 mph8.7 mph7.3 mph7.8 mph8.8 mph8.3 mph7.8 mph6.6 mph4.8 mph4.6 mph1.9 mph3.8 mph5.5 mph6 mph4.8 mph4.2 mph4.1 mph3.9 mph3.9 mph4.1 mph4.3 mph4.3 mph5.9 mph8 mph9.8 mph10.2 mph10.3 mph11.7 mph11.5 mph12.2 mph12.9 mph12.6 mph12 mph10.7 mph9.4 mph8.4 mph7.8 mph5.1 mph4.1 mph
Wind
Direction
116°
ESE
125°
SE
127°
SE
125°
SE
116°
ESE
121°
ESE
127°
SE
137°
SE
147°
SSE
154°
SSE
168°
SSE
176°
S
170°
S
175°
S
173°
S
172°
S
182°
S
233°
SW
289°
WNW
16°
NNE
97°
E
138°
SE
164°
SSE
183°
S
182°
S
183°
S
178°
S
180°
S
187°
S
185°
S
185°
S
191°
S
202°
SSW
213°
SSW
219°
SW
216°
SW
220°
SW
225°
SW
226°
SW
237°
WSW
239°
WSW
239°
WSW
237°
WSW
241°
WSW
252°
WSW
258°
WSW
237°
WSW
212°
SSW

Daily Forecast

Date High Low Precip. Humidity
Today
May 26

Rain
94 °F
72 °F
43%
38%
Friday
May 27

Clouds
92 °F
72 °F
43%
37%
Saturday
May 28

Rain
95 °F
68 °F
22%
26%
Sunday
May 29

Rain
96 °F
69 °F
60%
27%
Monday
May 30

Clouds
93 °F
70 °F
45%
35%
Tuesday
May 31

Clear
95 °F
70 °F
12%
28%
Wednesday
Jun 1

Rain
91 °F
69 °F
58%
36%
Thursday
Jun 2

Rain
90 °F
69 °F
55%
41%
Friday
Jun 3

Clouds
97 °F
69 °F
0%
27%
Saturday
Jun 4

Rain
100 °F
72 °F
99%
25%
Sunday
Jun 5

Rain
91 °F
71 °F
100%
43%
Monday
Jun 6

Rain
91 °F
72 °F
93%
45%
Tuesday
Jun 7

Clear
95 °F
71 °F
0%
32%
Wednesday
Jun 8

Clouds
97 °F
69 °F
0%
23%
Thursday
Jun 9

Clear
97 °F
70 °F
0%
25%
Friday
Jun 10

Rain
99 °F
73 °F
36%
29%

Temperature 8-14 Day Outlook



Precipitation 8-14 Day Outlook




Quick Links
Holden Pond News
Holden Pond Photos
Holden Pond Videos




About Us
Contact Us
Site Map
Search Site
Advertise With Us
   
HoldenPond.LakesOnline.com
THE HOLDEN POND WEBSITE

Copyright 2022, Lakes Online
Privacy    |    Legal